Skip Page Navigation
NASA JPL Caltech
NASA Logo - Jet Propulsion Laboratory + View the NASA Portal
+ Near-Earth Object (NEO) Program
Search JPL
JPL Home Earth Solar System Stars & Galaxies Technology
JPL Solar System Dynamics
BODIES ORBITS EPHEMERIDES TOOLS PHYSICAL DATA DISCOVERY FAQ SITE MAP
JPL Small-Body Database Browser
Search: [ help ]  
6469 Armstrong (1982 PC)
Classification: Main-belt Asteroid          SPK-ID: 2006469
Ephemeris | Orbit Diagram | Orbital Elements | Physical Parameters | Discovery Circumstances ]

[ hide orbit diagram ]
Orbit Diagram
Note: Make sure you have Java enabled on your browser to see the applet. This applet is provided as a 3D orbit visualization tool. The applet was implemented using 2-body methods, and hence should not be used for determining accurate long-term trajectories (over several years or decades) or planetary encounter circumstances. For accurate long-term ephemerides, please instead use our Horizons system.

Note: If the applet has stopped working because of a recent Java upgrade, here is a possible workaround.
Orbit Viewer

Additional Notes: the orbits shown in the applet are color coded. The planets are white lines, and the asteroid/comet is a blue line. The bright white line indicates the portion of the orbit that is above the ecliptic plane, and the darker portion is below the ecliptic plane. Likewise for the asteroid/comet orbit, the light blue indicates the portion above the ecliptic plane, and the dark blue the portion below the ecliptic plane.

Orbit Viewer applet originally written and kindly provided by Osamu Ajiki (AstroArts), and further modified by Ron Baalke (JPL).


Orbital Elements at Epoch 2457000.5 (2014-Dec-09.0) TDB
Reference: JPL 11 (heliocentric ecliptic J2000)
 Element Value Uncertainty (1-sigma)   Units 
e .2041184589591191 5.8816e-08  
a 2.219253788996874 9.6204e-09 AU
q 1.766263125547646 1.2807e-07 AU
i 3.959444300716757 6.7403e-06 deg
node 159.4136171042095 7.689e-05 deg
peri 150.7426692843997 7.9678e-05 deg
M 288.1845972797171 2.6431e-05 deg
tp 2457241.392889707578
(2015-Aug-06.89288971)
8.9689e-05 JED
period 1207.56045374421
3.31
7.8521e-06
2.15e-08
d
yr
n .2981217204354197 1.9385e-09 deg/d
Q 2.672244452446102 1.1584e-08 AU
  Orbit Determination Parameters
   # obs. used (total)      892  
   data-arc span      16306 days (44.64 yr)  
   first obs. used      1969-10-16  
   last obs. used      2014-06-08  
   planetary ephem.      DE431  
   SB-pert. ephem.      SB431-BIG16  
   condition code      0  
   fit RMS      .54978  
   data source      ORB  
   producer      Otto Matic  
   solution date      2014-Jun-16 13:34:31  

Additional Information
 Earth MOID = .7542 AU 
 T_jup = 3.620 
[ show covariance matrix ]

Ephemeris | Orbit Diagram | Orbital Elements | Physical Parameters | Discovery Circumstances ]

Physical Parameter Table
Parameter Symbol Value Units Sigma Reference Notes
absolute magnitude H 14.4 mag n/a MPO256911  

6469 Armstrong (1982 PC)          Discovered 1982-Aug-14 by Mrkos, A. at Klet
Reference: DISCOVERY.DBLast Updated: 2003-08-29

Alternate Designations
 1982 PC = 1969 UK1 = 1972 NN = 1979 WZ6 = 1982 QL 
Ephemeris | Orbit Diagram | Orbital Elements | Physical Parameters | Discovery Circumstances ]
ABOUT SSD CREDITS/AWARDS PRIVACY/COPYRIGHT GLOSSARY LINKS
FirstGov 2014-Sep-18 05:51 UT
(server date/time)  
NASA Home Page
Site Manager:   Donald K. Yeomans
Webmaster  Alan B. Chamberlin